EW9504 Weather Reports


Display with metric or nautical units.
time (UTC)temp
F
wind
direction
speed
MPH
gust
MPH
rain 1hr
in
rain 24hr
in
rain mn
in
humidity
%
barometer
mb
20260506184554 87 257 0.0 5.0 0.00 0.00 0.00 79 1008.2
20260506183050 86 217 0.0 6.0 0.00 0.00 0.00 81 1008.3
20260506181548 84 158 0.0 4.0 0.00 0.00 0.00 84 1008.6
20260506180048 83 216 0.0 2.0 0.00 0.00 0.00 85 1008.9
20260506174547 84 121 0.0 2.0 0.00 0.00 0.00 83 1009.3
20260506173121 85 127 0.0 2.0 0.00 0.00 0.00 82 1009.3
20260506171546 85 122 0.0 3.0 0.00 0.00 0.00 84 1009.4
20260506170045 84 117 0.0 4.0 0.00 0.00 0.00 86 1009.4
20260506164541 82 110 0.0 3.0 0.00 0.00 0.00 88 1009.5
20260506163040 81 101 0.0 4.0 0.00 0.00 0.00 90 1009.4
20260506161535 79 115 0.0 3.0 0.00 0.00 0.00 92 1009.3
20260506160034 79 114 0.0 2.0 0.00 0.00 0.00 91 1009.1
20260506154534 79 271 0.0 3.0 0.00 0.00 0.00 90 1009.1
20260506153032 80 98 0.0 3.0 0.00 0.00 0.00 89 1009.0
20260506151530 80 146 0.0 2.0 0.00 0.00 0.00 90 1008.7
20260506150028 80 129 0.0 4.0 0.00 0.00 0.00 89 1008.5
20260506144532 80 101 0.0 4.0 0.00 0.00 0.00 90 1008.2
20260506143026 80 127 1.0 4.0 0.00 0.00 0.00 91 1008.1
20260506141521 79 124 0.0 4.0 0.00 0.00 0.00 94 1008.1
20260506140018 78 338 0.0 4.0 0.00 0.00 0.00 95 1008.2
20260506134517 77 135 0.0 3.0 0.00 0.00 0.00 97 1008.3
20260506133013 76 121 0.0 2.0 0.00 0.00 0.00 98 1008.3
20260506131513 76 129 0.0 2.0 0.00 0.00 0.00 98 1008.4
20260506130011 75 115 0.0 1.0 0.00 0.00 0.00 98 1008.3
20260506124509 75 133 0.0 1.0 0.00 0.00 0.00 98 1008.4
20260506123008 75 133 0.0 0.0 0.00 0.00 0.00 98 1008.3
20260506121510 74 133 0.0 1.0 0.00 0.00 0.00 98 1008.0
20260506120014 74 133 0.0 0.0 0.00 0.00 0.00 98 1008.0
20260506114508 74 132 0.0 0.0 0.00 0.00 0.00 97 1007.7
20260506113006 74 133 0.0 0.0 0.00 0.00 0.00 97 1007.6
20260506111506 74 133 0.0 0.0 0.00 0.00 0.00 97 1007.4
20260506110006 75 101 0.0 2.0 0.00 0.00 0.00 97 1007.3
20260506104505 75 224 0.0 1.0 0.00 0.00 0.00 97 1007.2
20260506103006 75 105 0.0 1.0 0.00 0.00 0.00 97 1007.2
20260506101506 74 242 0.0 0.0 0.00 0.00 0.00 97 1007.3
20260506100003 74 223 0.0 2.0 0.00 0.00 0.00 97 1007.1
20260506094505 74 195 0.0 1.0 0.00 0.00 0.00 97 1007.0
20260506093003 74 242 0.0 1.0 0.00 0.00 0.00 97 1007.1
20260506091502 74 232 0.0 0.0 0.00 0.00 0.00 96 1007.0
20260506084623 75 114 0.0 2.0 0.00 0.00 0.00 96 1007.2
20260506083058 75 212 0.0 2.0 0.00 0.00 0.00 96 1007.2
20260506081600 75 105 0.0 2.0 0.00 0.00 0.00 96 1007.3
20260506073053 76 82 0.0 2.0 0.00 0.00 0.00 95 1007.8
20260506071551 76 217 0.0 0.0 0.00 0.00 0.00 95 1007.9
20260506061550 76 142 0.0 4.0 0.00 0.00 0.00 95 1008.2
20260506044636 76 262 0.0 3.0 0.00 0.00 0.00 94 1008.2
20260506043042 76 162 0.0 2.0 0.00 0.00 0.00 93 1008.0
20260506041553 76 129 0.0 3.0 0.00 0.00 0.00 93 1008.0
20260506040041 77 117 0.0 2.0 0.00 0.00 0.00 93 1008.0
20260506034610 77 124 0.0 5.0 0.00 0.00 0.00 92 1007.8
20260506033040 77 208 0.0 4.0 0.00 0.00 0.00 91 1007.5
20260506031543 77 192 0.0 4.0 0.00 0.00 0.00 90 1007.4
20260506030040 77 179 0.0 2.0 0.00 0.00 0.00 90 1007.4
20260506024539 78 127 0.0 3.0 0.00 0.00 0.00 90 1007.3
20260506023100 78 161 0.0 2.0 0.00 0.00 0.00 90 1007.1
20260506021539 78 141 0.0 2.0 0.00 0.00 0.00 89 1006.8
20260506020042 78 297 0.0 5.0 0.00 0.00 0.00 89 1006.7
20260506014539 78 221 0.0 5.0 0.00 0.00 0.00 88 1006.4
20260506013040 79 167 0.0 5.0 0.00 0.00 0.00 87 1006.1
20260506011538 79 192 1.0 4.0 0.00 0.00 0.00 87 1005.9
20260506010043 79 232 0.0 4.0 0.00 0.00 0.00 85 1006.0
20260506004558 80 150 1.0 6.0 0.00 0.00 0.00 84 1005.7
20260506003045 80 240 0.0 5.0 0.00 0.00 0.00 83 1005.6
20260506001539 81 127 0.0 3.0 0.00 0.00 0.00 82 1005.5
20260506000035 81 238 0.0 6.0 0.00 0.00 0.00 81 1005.6
20260505234555 81 276 3.0 8.0 0.00 0.00 0.00 80 1005.4
20260505233039 82 140 2.0 8.0 0.00 0.00 0.00 81 1005.6
20260505231535 82 201 1.0 4.0 0.00 0.00 0.00 80 1005.4
20260505230040 82 93 2.0 7.0 0.00 0.00 0.00 80 1005.5
20260505224538 82 234 2.0 12.0 0.00 0.00 0.00 80 1005.5
20260505223034 83 149 2.0 8.0 0.00 0.00 0.00 79 1005.7
20260505221533 84 211 2.0 10.0 0.00 0.00 0.00 79 1005.6
20260505220043 83 250 2.0 11.0 0.00 0.00 0.00 79 1005.9
20260505214536 84 269 2.0 6.0 0.00 0.00 0.00 79 1005.9
20260505213028 84 239 2.0 11.0 0.00 0.00 0.00 79 1006.1
20260505211527 83 219 2.0 10.0 0.00 0.00 0.00 79 1006.3
20260505210025 83 178 2.0 8.0 0.00 0.00 0.00 79 1006.5
20260505204524 84 124 1.0 8.0 0.00 0.00 0.00 80 1006.8
20260505203021 84 217 0.0 7.0 0.00 0.00 0.00 80 1006.9
20260505201524 84 198 1.0 10.0 0.00 0.00 0.00 79 1007.1
20260505200021 85 220 2.0 8.0 0.00 0.00 0.00 78 1007.2
20260505194529 83 208 1.0 8.0 0.00 0.00 0.00 81 1007.3
20260505193033 83 162 1.0 7.0 0.00 0.00 0.00 79 1007.5
20260505191517 83 210 2.0 8.0 0.00 0.00 0.00 80 1007.6
20260505190015 83 185 2.0 9.0 0.00 0.00 0.00 80 1007.6